Weather Roundup
Issued by NWS Springfield, MO

Home | Current Version | Previous Version | Text Only | Print | Product List | Glossary On
Versions: 1 2 3 4 5 6 7 8 9 10 11 12 13 14 15 16 17 18 19 20 21 22 23 24 25 26 27 28 29 30 31 32 33 34 35 36 37 38 39 40 41 42 43 44 45 46 47 48 49 50
000
NZUS99 KSGF 300359
HRRSGF

HOURLY WEATHER
NATIONAL WEATHER SERVICE SPRINGFIELD MO
1100 PM CDT MON SEP 29 2014

......SGF CWA......

CITY           SKY/WX    TMP DP  RH WIND       PRES   REMARKS
SPRINGFIELD    CLEAR     64  57  78 CALM      29.97F
JOPLIN         CLEAR     65  59  81 E3        29.96F
WEST PLAINS    MOCLDY    63  59  87 CALM      30.00S
ROLLA          CLEAR     67  53  61 SE9       29.97S
OSAGE BEACH    CLEAR     61  57  88 CALM      29.97S

......SURROUNDING SGF CWA......

CITY           SKY/WX    TMP DP  RH WIND       PRES   REMARKS
CHANUTE        CLEAR     65  60  84 SE3       29.96R
PARSONS        CLEAR     62  60  93 CALM      29.96S
COFFEYVILLE    CLEAR     66  61  84 CALM      29.94S
EMPORIA        CLEAR     66  60  81 S8        29.95R
SILOAM SPRINGS CLEAR     64  55  72 E3        29.99S
HARRISON AR    CLEAR     64  60  87 SE3       29.99S
NEAR YELLVILLE CLEAR     64  54  68 CALM      29.98R

......KANSAS AND MISSOURI......

CITY           SKY/WX    TMP DP  RH WIND       PRES   REMARKS
KANSAS CTY INT CLEAR     66  58  75 SE6       29.96R
DOWNTOWN KC    CLEAR     71  60  68 E3        29.94S
COLUMBIA       CLEAR     66  58  75 SE5       29.97F
SEDALIA        CLEAR     69  58  67 S3        29.97S
ST JOSEPH      CLEAR     61  57  87 CALM      29.95R
ST LOUIS       CLEAR     70  58  65 CALM      29.96F
SPIRIT OF STL  CLEAR     60  57  89 CALM      29.95F
KIRKSVILLE     CLEAR     62  58  86 CALM      29.97F
WICHITA        PTCLDY    73  58  59 SE12      29.92F
TOPEKA         PTCLDY    68  62  81 CALM      29.94S
OLATHE         CLEAR     68  60  75 S3        29.96S

......TENNESSEE......

CITY           SKY/WX    TMP DP  RH WIND       PRES   REMARKS
MEMPHIS        CLEAR     70  60  70 CALM      29.95S
NASHVILLE      MOCLDY    68  61  78 S3        29.96S

......ARKANSAS.......

CITY           SKY/WX    TMP DP  RH WIND       PRES   REMARKS
FAYETTEVILLE   CLEAR     61  61 100 CALM      29.99F
FT SMITH       CLEAR     68  63  84 NE5       29.94S
LITTLE ROCK    CLEAR     68  60  75 CALM      29.95S

......OKLAHOMA.......

CITY           SKY/WX    TMP DP  RH WIND       PRES   REMARKS
TULSA          PTCLDY    71  60  68 SE5       29.94S
PONCA CITY     CLEAR     73  57  57 S8        29.93S
MCALESTER      PTCLDY    68  61  78 E3        29.95S
OKLAHOMA CITY  PTCLDY    68  56  65 SE7       29.94S

......IOWA............

CITY           SKY/WX    TMP DP  RH WIND       PRES   REMARKS
DES MOINES     CLEAR     66  59  78 NE10      29.98S

......ILLINOIS........

CITY           SKY/WX    TMP DP  RH WIND       PRES   REMARKS
QUINCY         CLEAR     66  57  72 CALM      29.96S
CHICAGO        LGT RAIN  56  51  84 NE14G22   30.02S




USA.gov is the U.S. government's official web portal to all federal, state and local government web resources and services.